Flag for Montenegro Weather past 2 weeks in Podgorica, Montenegro

Now
72 °F

Sunny.


Feels Like: 77 °F
Forecast: 52 / 72 °F
Wind: 1 mph from Northeast

Location: Podgorica Titograd

Current Time: Oct 20, 2014 at 12:24:33 PM

Latest Report: Oct 20, 2014 at 12:00 PM


Visibility: 10 mi

Pressure: 30.18 "Hg

Humidity: 41%

Dew point: 46 °F

Location of PodgoricaLocation

Historic Weather in Podgorica — Graph

°F

Podgorica temperature yesterday

Maximum temperature yesterday: 77 °F (at 2:30 PM)
Minimum temperature yesterday: 55 °F (at 7:30 AM)
Average temperature yesterday: 66 °F

Past Weeks' High & Low Weather Summary

 TemperatureHumidityPressure
High82 °F (Oct 18, 1:00 PM)100% (Oct 6, 9:00 AM)30.27 "Hg (Oct 6, 9:00 AM)
Low50 °F (Oct 20, 7:30 AM)27% (Oct 19, 5:00 PM)29.92 "Hg (Oct 14, 4:30 PM)
Average67 °F75%30.06 "Hg
* Reported Oct 5 11:00 AM — Oct 20 11:00 AM, Podgorica, Weather by CustomWeather, © 2014

Note: Actual official high and low records may vary slightly from our data, if they occured in-between our weather recording intervals... More about our weather records

Advertising

Podgorica weather history for previous 24 hours

 ConditionsComfort  
Time TempWeatherWind HumidityBarometerVisibility
11:00 AM
Oct 20
68 °FSunny.1 mph43%30.21 "Hg10 mi
10:30 AM66 °FSunny.2 mph46%30.21 "Hg10 mi
10:00 AM64 °FSunny.2 mph49%30.21 "Hg10 mi
9:30 AM63 °FPassing clouds.5 mph56%30.24 "HgN/A
9:00 AM59 °FSunny.2 mph68%30.21 "Hg10 mi
8:30 AM55 °FSunny.2 mph72%30.21 "Hg10 mi
8:00 AM54 °FPassing clouds.3 mph72%30.21 "HgN/A
7:30 AM50 °FClear.2 mph82%30.21 "Hg10 mi
7:00 AM52 °FClear.5 mph77%30.21 "Hg10 mi
5:00 AM52 °FClear.2 mph77%30.21 "Hg10 mi
4:30 AM54 °FPassing clouds.3 mph72%30.21 "HgN/A
4:00 AM54 °FClear.3 mph77%30.21 "Hg10 mi
3:30 AM54 °FClear.5 mph77%30.24 "Hg10 mi
3:00 AM54 °FClear.1 mph77%30.24 "Hg10 mi
2:30 AM54 °FClear.2 mph77%30.24 "Hg10 mi
2:00 AM54 °FClear.5 mph77%30.24 "Hg10 mi
1:30 AM54 °FClear.2 mph77%30.24 "Hg10 mi
1:00 AM54 °FClear.1 mph77%30.24 "Hg10 mi
12:30 AM55 °FClear.3 mph72%30.24 "Hg10 mi
12:00 AM55 °FClear.3 mph72%30.27 "Hg10 mi
11:30 PM
Oct 19
57 °FClear.1 mph67%30.27 "Hg10 mi
11:00 PM57 °FPassing clouds.3 mph67%30.27 "HgN/A
10:30 PM59 °FClear.3 mph63%30.27 "Hg10 mi
10:00 PM59 °FPassing clouds.3 mph63%30.27 "HgN/A
9:30 PM59 °FClear.3 mph63%30.24 "Hg10 mi
9:00 PM59 °FPassing clouds.7 mph68%30.24 "HgN/A
8:30 PM59 °FPassing clouds.5 mph68%30.24 "HgN/A
8:00 PM61 °FClear.6 mph63%30.24 "Hg10 mi
7:30 PM63 °FClear.3 mph56%30.24 "Hg10 mi
7:00 PM64 °FClear.2 mph56%30.24 "Hg10 mi
6:30 PM66 °FSunny.1 mph52%30.24 "Hg10 mi
6:00 PM70 °FSunny.1 mph43%30.24 "Hg10 mi
5:30 PM73 °FSunny.1 mph31%30.21 "Hg10 mi
5:00 PM75 °FSunny.1 mph27%30.21 "Hg10 mi
4:30 PM75 °FSunny.2 mph29%30.21 "Hg10 mi
4:00 PM75 °FSunny.2 mph29%30.21 "Hg10 mi
3:30 PM75 °FPassing clouds.3 mph31%30.24 "HgN/A
3:00 PM77 °FPassing clouds.3 mph30%30.24 "HgN/A
2:30 PM77 °FPassing clouds.3 mph30%30.24 "HgN/A
2:00 PM75 °FPassing clouds.3 mph34%30.24 "HgN/A
1:30 PM75 °FPassing clouds.5 mph31%30.24 "HgN/A
1:00 PM75 °FPassing clouds.3 mph34%30.27 "HgN/A
12:30 PM75 °FSunny.2 mph34%30.27 "Hg10 mi
12:00 PM73 °FPassing clouds.5 mph33%30.27 "HgN/A
Weather by CustomWeather, © 2014

See weather overviewHow to use our weather pages